Date String (YYYY-MM-DD hh:mm:ss) UTC,Instrument flags,Ambient pressure (hPa),Sample flow (lpm),Bypass flow (lpm),Sample temperature (°C),Ambient temperature (°C),ASC tube jacket temperature (°C),LED temperature (°C),Box temperature (°C),Sample RH (%),Span deviation,Mass concentration (μg/m³),Mass concentration (μg/m³),Mass concentration (μg/m³)
DateTimeUTC,F1_M11,P_M11,Q1_M11,Q2_M11,T1_M11,T2_M11,T3_M11,T4_M11,T5_M11,U1_M11,ZSPAN_M11,X2_M11,X0_M11,X1_M11
2023-02-08 12:00:00,,0825.6,4.95,0.00,22.5,22.7,00.0,31.1,24.4,07.3,0000.0,0002.00,0005.69,0001.34
2023-02-08 12:01:00,,0825.6,5.02,0.00,22.5,22.2,00.0,31.2,24.3,07.3,0000.0,0002.05,0005.91,0001.34
2023-02-08 12:02:00,,0825.6,4.98,0.00,22.5,21.8,00.0,31.2,24.2,07.3,0000.0,0002.07,0007.09,0001.34
2023-02-08 12:03:00,,0825.5,4.92,0.00,22.4,21.5,00.0,31.2,24.2,07.4,0000.0,0002.09,0007.33,0001.34
2023-02-08 12:04:00,,0825.6,4.98,0.00,22.4,21.3,00.0,31.2,24.1,07.5,0000.0,0002.10,0007.55,0001.33
2023-02-08 12:05:00,,0825.6,4.99,0.00,22.4,21.1,00.0,31.3,24.1,07.5,0000.0,0002.08,0007.49,0001.31
2023-02-08 12:06:00,,0825.6,5.02,0.00,22.4,20.9,00.0,31.3,24.0,07.5,0000.0,0002.07,0007.55,0001.31
2023-02-08 12:07:00,,0825.5,5.00,0.00,22.3,20.8,00.0,31.2,24.0,07.7,0000.0,0002.00,0007.55,0001.29
2023-02-08 12:08:00,,0825.5,4.98,0.00,22.3,20.8,00.0,31.2,23.9,07.6,0000.0,0001.96,0007.59,0001.27
2023-02-08 12:09:00,,0825.4,5.01,0.00,22.3,20.7,00.0,31.2,23.8,07.6,0000.0,0001.89,0007.42,0001.26
2023-02-08 12:10:00,,0825.4,5.00,0.00,22.3,20.7,00.0,31.2,23.8,07.5,0000.0,0001.88,0007.36,0001.24
2023-02-08 12:11:00,,0825.4,5.01,0.00,22.3,20.7,00.0,31.2,23.8,07.5,0000.0,0001.89,0005.66,0001.25
2023-02-08 12:12:00,,0825.4,5.01,0.00,22.2,20.6,00.0,31.2,23.8,07.5,0000.0,0001.89,0005.68,0001.27
2023-02-08 12:13:00,,0825.4,5.01,0.00,22.2,21.0,00.0,31.2,23.9,07.6,0000.0,0001.91,0004.79,0001.29
2023-02-08 12:14:00,,0825.4,5.03,0.00,22.3,22.0,00.0,31.1,24.2,07.6,0000.0,0001.95,0004.95,0001.33
2023-02-08 12:15:00,,0825.4,5.00,0.00,22.4,22.8,00.0,31.1,24.4,07.6,0000.0,0001.96,0004.57,0001.38
2023-02-08 12:16:00,,0825.4,5.01,0.00,22.5,22.6,00.0,31.2,24.4,07.6,0000.0,0002.03,0004.64,0001.44
2023-02-08 12:17:00,,0825.4,4.98,0.00,22.5,22.0,00.0,31.2,24.3,07.6,0000.0,0002.10,0004.57,0001.50
2023-02-08 12:18:00,,0825.4,4.93,0.00,22.4,21.5,00.0,31.2,24.1,07.6,0000.0,0002.17,0004.72,0001.56
2023-02-08 12:19:00,,0825.3,5.01,0.00,22.4,21.0,00.0,31.2,24.0,07.7,0000.0,0002.26,0004.89,0001.62
2023-02-08 12:20:00,,0825.3,5.02,0.00,22.3,20.7,00.0,31.2,23.9,07.7,0000.0,0002.40,0005.20,0001.70
2023-02-08 12:21:00,,0825.3,4.98,0.00,22.3,20.5,00.0,31.2,23.8,07.7,0000.0,0002.51,0005.52,0001.77
2023-02-08 12:22:00,,0825.3,5.02,0.00,22.2,20.3,00.0,31.2,23.7,07.8,0000.0,0002.56,0005.94,0001.83
2023-02-08 12:23:00,,0825.3,5.02,0.00,22.2,20.2,00.0,31.2,23.7,07.8,0000.0,0002.63,0005.98,0001.88
2023-02-08 12:24:00,,0825.3,5.00,0.00,22.1,20.1,00.0,31.2,23.6,07.8,0000.0,0002.66,0006.49,0001.93
2023-02-08 12:25:00,,0825.2,4.98,0.00,22.1,20.0,00.0,31.1,23.6,07.8,0000.0,0002.66,0006.48,0001.96
2023-02-08 12:26:00,,0825.3,5.02,0.00,22.0,20.0,00.0,31.1,23.6,07.8,0000.0,0002.69,0006.82,0001.97
2023-02-08 12:27:00,,0825.3,5.01,0.00,22.0,20.0,00.0,31.1,23.5,07.8,0000.0,0002.72,0006.95,0001.97
2023-02-08 12:28:00,,0825.3,4.99,0.00,22.0,20.1,00.0,31.0,23.5,07.8,0000.0,0002.72,0006.97,0001.96
2023-02-08 12:29:00,,0825.3,4.99,0.00,22.0,21.1,00.0,31.0,23.8,07.8,0000.0,0002.74,0006.97,0001.96
2023-02-08 12:30:00,,0825.3,5.02,0.00,22.1,22.3,00.0,31.0,24.1,07.7,0000.0,0002.69,0006.75,0001.95
2023-02-08 12:31:00,,0825.3,4.98,0.00,22.2,22.8,00.0,31.0,24.2,07.7,0000.0,0002.67,0006.63,0001.94
2023-02-08 12:32:00,,0825.3,5.00,0.00,22.3,22.3,00.0,31.0,24.1,07.7,0000.0,0002.63,0006.43,0001.93
2023-02-08 12:33:00,,0825.3,4.98,0.00,22.3,21.8,00.0,31.1,24.0,07.6,0000.0,0002.68,0006.06,0001.93
2023-02-08 12:34:00,,0825.3,5.02,0.00,22.2,21.3,00.0,31.1,23.9,07.6,0000.0,0002.68,0007.11,0001.93
2023-02-08 12:35:00,,0825.3,5.00,0.00,22.2,21.0,00.0,31.1,23.9,07.6,0000.0,0002.63,0006.69,0001.89
2023-02-08 12:36:00,,0825.3,5.01,0.00,22.2,20.9,00.0,31.1,23.9,07.7,0000.0,0002.62,0006.12,0001.86
2023-02-08 12:37:00,,0825.3,5.01,0.00,22.2,20.8,00.0,31.1,23.9,07.7,0000.0,0002.63,0005.82,0001.86
2023-02-08 12:38:00,,0825.3,5.02,0.00,22.2,20.8,00.0,31.1,23.9,07.6,0000.0,0002.56,0005.68,0001.85
2023-02-08 12:39:00,,0825.3,4.98,0.00,22.2,20.7,00.0,31.1,23.9,07.7,0000.0,0002.57,0006.46,0001.85
2023-02-08 12:40:00,,0825.3,4.99,0.00,22.2,20.7,00.0,31.1,23.9,07.7,0000.0,0002.54,0006.63,0001.83
2023-02-08 12:41:00,,0825.3,5.03,0.00,22.2,20.7,00.0,31.1,23.9,07.7,0000.0,0002.54,0007.17,0001.81
2023-02-08 12:42:00,,0825.3,4.98,0.00,22.2,20.6,00.0,31.1,23.8,07.7,0000.0,0002.54,0007.31,0001.81
2023-02-08 12:43:00,,0825.3,5.01,0.00,22.1,20.5,00.0,31.1,23.8,07.7,0000.0,0002.54,0007.41,0001.81
2023-02-08 12:44:00,,0825.2,4.99,0.00,22.1,20.5,00.0,31.1,23.8,07.7,0000.0,0002.50,0007.43,0001.80
2023-02-08 12:45:00,,0825.3,5.01,0.00,22.1,20.4,00.0,31.0,23.8,07.7,0000.0,0002.43,0006.28,0001.79
2023-02-08 12:46:00,,0825.2,4.99,0.00,22.1,20.3,00.0,31.0,23.7,07.7,0000.0,0002.47,0006.25,0001.78
2023-02-08 12:47:00,,0825.3,5.02,0.00,22.1,20.6,00.0,31.0,23.8,07.7,0000.0,0002.55,0006.64,0001.77
2023-02-08 12:48:00,,0825.3,5.01,0.00,22.2,21.7,00.0,31.0,24.0,07.7,0000.0,0002.54,0006.68,0001.76
2023-02-08 12:49:00,,0825.3,4.98,0.00,22.3,22.7,00.0,31.0,24.3,07.7,0000.0,0002.57,0006.74,0001.75
2023-02-08 12:50:00,,0825.3,5.06,0.00,22.4,22.8,00.0,31.0,24.4,07.6,0000.0,0002.52,0005.94,0001.72
2023-02-08 12:51:00,,0825.3,4.98,0.00,22.4,22.3,00.0,31.1,24.3,07.6,0000.0,0002.48,0005.86,0001.71
2023-02-08 12:52:00,,0825.3,4.93,0.00,22.4,22.0,00.0,31.1,24.3,07.6,0000.0,0002.43,0005.08,0001.71
2023-02-08 12:53:00,,0825.3,5.01,0.00,22.4,21.7,00.0,31.1,24.2,07.6,0000.0,0002.46,0006.33,0001.69
2023-02-08 12:54:00,,0825.3,4.96,0.00,22.4,21.5,00.0,31.2,24.2,07.5,0000.0,0002.51,0006.46,0001.68
2023-02-08 12:55:00,,0825.3,4.96,0.00,22.4,21.3,00.0,31.2,24.2,07.5,0000.0,0002.47,0006.31,0001.66
2023-02-08 12:56:00,,0825.2,5.04,0.00,22.4,21.2,00.0,31.2,24.1,07.5,0000.0,0002.50,0006.49,0001.64
2023-02-08 12:57:00,,0825.2,5.01,0.00,22.4,21.0,00.0,31.2,24.1,07.5,0000.0,0002.45,0006.37,0001.64
2023-02-08 12:58:00,,0825.2,5.02,0.00,22.4,20.9,00.0,31.2,24.1,07.5,0000.0,0002.40,0006.18,0001.64
2023-02-08 12:59:00,,0825.1,4.99,0.00,22.4,20.9,00.0,31.2,24.1,07.5,0000.0,0002.38,0006.08,0001.63
